GAOFEN-1 03

Last updated on Sat Jun 21 2025 00:02:29 GMT+0000 (Coordinated Universal Time)

1 43260U 18031B 25171.59071357 .00000548 00000+0 85466-4 0 9990 2 43260 97.7714 232.3842 0007039 113.0684 247.1269 14.76589107389333
UTC large
Height (km)
Speed (km/s)
/
Latitude / Longitude
Inclination (degrees)
Orbital Period (minutes)
Azimuth
Elevation
Range (km)
Doppler Factor

Next 0 passes for location: London (51.5072 / 0.1276)

Sorry there are no passes over London.